GW0115 Weather Reports


time (UTC)temp
C
wind
direction
speed
KPH
gust
KPH
rain 1hr
cm
rain 24hr
cm
rain mn
cm
humidity
%
barometer
mb
20260906110057 14 0 0.0 0.0 0.00 0.00 0.00 86 1016.1
20260906104556 14 0 0.0 0.0 0.00 0.00 0.00 86 1015.9
20260906103052 14 0 0.0 3.2 0.00 0.00 0.00 87 1015.8
20260906101559 14 0 0.0 0.0 0.00 0.00 0.00 87 1015.5
20260906100056 14 0 0.0 0.0 0.00 0.00 0.00 86 1015.5
20260906094557 15 0 0.0 0.0 0.00 0.00 0.00 85 1015.4
20260906093057 15 0 0.0 0.0 0.00 0.00 0.00 85 1015.3
20260906091551 15 0 0.0 3.2 0.00 0.00 0.00 86 1015.2
20260906090109 15 0 0.0 0.0 0.00 0.00 0.00 86 1015.0
20260906084603 15 0 0.0 1.6 0.00 0.00 0.00 87 1014.8
20260906083103 16 0 0.0 3.2 0.00 0.00 0.00 86 1014.6
20260906081555 16 0 0.0 6.4 0.00 0.00 0.00 85 1014.6
20260906080106 16 0 0.0 12.9 0.00 0.00 0.00 84 1014.6
20260906074556 16 0 0.0 3.2 0.00 0.00 0.00 84 1014.4
20260906073057 16 0 0.0 0.0 0.00 0.00 0.00 84 1014.3
20260906071554 16 0 0.0 0.0 0.00 0.00 0.00 84 1014.2
20260906070057 16 0 0.0 0.0 0.00 0.00 0.00 84 1013.9
20260906064555 17 0 0.0 0.0 0.00 0.00 0.00 83 1013.9
20260906063057 17 0 0.0 0.0 0.00 0.00 0.00 84 1013.8
20260906061556 17 0 0.0 0.0 0.00 0.00 0.00 84 1013.9
20260906060133 17 0 0.0 0.0 0.00 0.00 0.00 85 1013.9
20260906054613 17 0 0.0 0.0 0.00 0.00 0.00 85 1013.9
20260906053055 17 0 0.0 0.0 0.00 0.00 0.00 85 1013.8
20260906051605 17 0 0.0 0.0 0.00 0.00 0.00 86 1014.0
20260906050109 17 0 0.0 0.0 0.00 0.00 0.00 86 1013.9
20260906044556 17 0 0.0 0.0 0.00 0.00 0.00 85 1014.0
20260906043057 17 0 0.0 0.0 0.00 0.00 0.00 84 1014.0
20260906041553 17 0 0.0 0.0 0.00 0.00 0.00 83 1014.0
20260906034601 17 0 0.0 0.0 0.00 0.00 0.00 83 1013.9
20260906033054 18 0 0.0 0.0 0.00 0.00 0.00 83 1013.8
20260906031617 18 0 0.0 0.0 0.00 0.00 0.00 83 1013.7
20260906030056 18 0 0.0 0.0 0.00 0.00 0.00 83 1013.6
20260906024556 18 0 0.0 0.0 0.00 0.00 0.00 83 1013.6
20260906023109 18 0 0.0 0.0 0.00 0.00 0.00 83 1013.5
20260906021558 17 0 0.0 8.0 0.00 0.00 0.00 83 1013.5
20260906020059 17 0 0.0 0.0 0.00 0.00 0.00 83 1013.5
20260906014553 18 0 0.0 0.0 0.00 0.00 0.00 83 1013.5
20260906013058 18 0 0.0 1.6 0.00 0.00 0.00 82 1013.6
20260906011603 18 0 0.0 1.6 0.00 0.00 0.00 83 1013.6
20260906010059 18 0 0.0 0.0 0.00 0.00 0.00 83 1013.5
20260906004602 18 0 0.0 0.0 0.00 0.00 0.00 83 1013.4
20260906003058 18 0 0.0 4.8 0.00 0.00 0.00 84 1013.3
20260906001554 18 0 0.0 0.0 0.00 0.00 0.00 84 1013.3
20260906000110 18 0 0.0 0.0 0.00 0.00 0.00 81 1013.3
20260905234559 18 0 0.0 0.0 0.00 0.00 0.00 81 1013.0
20260905233102 18 0 0.0 0.0 0.00 0.00 0.00 80 1013.1
20260905231605 19 0 0.0 1.6 0.00 0.00 0.00 79 1012.8
20260905230136 19 0 0.0 0.0 0.00 0.00 0.00 79 1012.7
20260905224555 19 0 0.0 0.0 0.00 0.00 0.00 79 1012.7
20260905223055 20 0 0.0 0.0 0.00 0.00 0.00 79 1012.7
20260905221624 20 0 0.0 0.0 0.00 0.00 0.00 77 1012.7
20260905220056 20 0 0.0 0.0 0.00 0.00 0.00 76 1012.5
20260905214602 20 0 0.0 0.0 0.00 0.00 0.00 75 1012.2
20260905213105 20 0 0.0 6.4 0.00 0.00 0.00 74 1012.1
20260905211556 21 0 0.0 0.0 0.00 0.00 0.00 76 1012.0
20260905210104 21 0 0.0 9.7 0.00 0.00 0.00 74 1011.8
20260905204552 21 0 0.0 6.4 0.00 0.00 0.00 73 1011.7
20260905203100 21 0 0.0 8.0 0.00 0.00 0.00 73 1011.6
20260905201556 21 0 0.0 9.7 0.00 0.00 0.00 74 1011.6
20260905200126 21 0 0.0 9.7 0.00 0.00 0.00 72 1011.6
20260905194553 22 0 0.0 4.8 0.00 0.00 0.00 70 1011.6
20260905193059 21 0 0.0 8.0 0.00 0.00 0.00 71 1011.5
20260905191554 21 0 0.0 1.6 0.00 0.00 0.00 70 1011.5
20260905190056 22 345 0.0 6.4 0.00 0.00 0.00 68 1011.6
20260905184603 22 0 0.0 9.7 0.00 0.00 0.00 71 1011.6
20260905183057 23 0 0.0 14.5 0.00 0.00 0.00 69 1011.6
20260905181555 22 0 1.6 11.3 0.00 0.00 0.00 69 1011.6
20260905180114 21 0 0.0 6.4 0.00 0.00 0.00 72 1011.7
20260905174557 21 0 0.0 11.3 0.00 0.00 0.00 74 1011.7
20260905173113 21 0 0.0 9.7 0.00 0.00 0.00 74 1011.8
20260905171556 21 0 0.0 16.1 0.00 0.00 0.00 74 1011.8
20260905164611 21 0 0.0 12.9 0.00 0.00 0.00 76 1011.9
20260905163104 21 0 1.6 12.9 0.00 0.00 0.00 77 1011.9
20260905161600 21 0 0.0 3.2 0.00 0.00 0.00 80 1012.2
20260905160107 20 0 0.0 9.7 0.00 0.00 0.00 81 1012.2
20260905154604 20 0 0.0 9.7 0.00 0.00 0.00 83 1012.2
20260905153053 19 0 0.0 6.4 0.00 0.00 0.00 85 1012.4
20260905151601 19 0 0.0 3.2 0.00 0.00 0.00 86 1012.6
20260905150055 18 0 0.0 0.0 0.00 0.00 0.00 90 1012.5
20260905144555 18 0 0.0 0.0 0.00 0.00 0.00 88 1012.4
20260905143052 18 0 0.0 0.0 0.00 0.00 0.00 85 1012.3
20260905141554 18 0 0.0 0.0 0.00 0.00 0.00 86 1012.2
20260905134606 18 0 0.0 0.0 0.00 0.00 0.00 86 1012.4
20260905133100 18 0 0.0 0.0 0.00 0.00 0.00 86 1012.3
20260905131601 17 0 0.0 0.0 0.00 0.00 0.00 88 1012.1
20260905130101 17 0 0.0 0.0 0.00 0.00 0.00 89 1012.0
20260905124606 17 0 0.0 0.0 0.00 0.00 0.00 90 1012.0
20260905123102 16 0 0.0 0.0 0.00 0.00 0.00 92 1011.7
20260905121606 16 0 0.0 0.0 0.00 0.00 0.00 93 1011.6
20260905120107 15 0 0.0 0.0 0.00 0.00 0.00 93 1011.4
20260905114609 15 0 0.0 0.0 0.00 0.00 0.00 93 1011.3
20260905113102 15 0 0.0 0.0 0.00 0.00 0.00 93 1011.3
20260905111651 14 0 0.0 0.0 0.00 0.00 0.00 93 1011.2